Martinsburg, WV

2:54 AM EST on November 12, 2019 (GMT -0500)
Eastern W Va Regional-Shepherd

Weather History for KMRB - September, 2019

Change the Weather History Date:

Wednesday, September 11, 2019

  Actual Average Record
Temperature  
Mean Temperature 76 °F 67 °F  
Max Temperature 93 °F 79 °F 98 °F (1941)
Min Temperature 62 °F 56 °F 39 °F (1969)
Degree Days  
Heating Degree Days 0 2  
Month to date heating degree days 12  
Since 1 July heating degree days 19  
Cooling Degree Days 12 4  
Month to date cooling degree days 53  
Year to date cooling degree days 845  
Growing Degree Days 26 (Base 50)    
Moisture  
Dew Point 68 °F    
Average Humidity 78    
Maximum Humidity 100    
Minimum Humidity 48    
Precipitation  
Precipitation 0.12 in 0.11 in 1.61 in (1971)
Month to date precipitation 1.25  
Year to date precipitation 27.49  
Sea Level Pressure  
Sea Level Pressure 30.13 in    
Wind  
Wind Speed 3 mph ()    
Max Wind Speed 12 mph    
Max Gust Speed 22 mph    
Visibility 8.4 miles    
Events Rain , Thunderstorm    
T = Trace of Precipitation, MM = Missing Value Source: Averaged Metar Reports

Daily Weather History Graph

Daily Weather History Graph

Search for Another Location

Airport or City:

Astronomy

Sep. 11, 2019 Rise Set
Actual Time 6:49 AM EDT 7:27 PM EDT
Civil Twilight 6:22 AM EDT 7:54 PM EDT
Nautical Twilight 5:50 AM EDT 8:26 PM EDT
Astronomical Twilight 5:17 AM EDT 8:58 PM EDT
Moon 6:37 PM EDT (9/11) 4:11 AM EDT (9/11)
Length of Visible Light 13h 32m
Length of Day
12h 38m
Waxing Gibbous, 94% of the Moon is Illuminated
Sep 11
Waxing Gibbous
Sep 14
Full
Sep 21
Last Quarter
Sep 28
New
Oct 5
First Quarter

Hourly Weather History & Observations

Time (EDT) Temp. Heat Index Dew Point Humidity Pressure Visibility Wind Dir Wind Speed Gust Speed Precip Events Conditions
12:53 AM 64.9 °F - 63.0 °F 93% 30.22 in 10.0 mi Calm Calm - N/A   Clear
1:53 AM 66.0 °F - 64.0 °F 93% 30.22 in 10.0 mi Calm Calm - N/A   Clear
2:53 AM 64.0 °F - 63.0 °F 96% 30.20 in 7.0 mi Calm Calm - N/A   Clear
3:53 AM 63.0 °F - 63.0 °F 100% 30.19 in 6.0 mi Calm Calm - N/A   Clear
4:53 AM 64.0 °F - 63.0 °F 96% 30.18 in 5.0 mi ENE 3.5 mph - N/A   Clear
5:53 AM 63.0 °F - 62.1 °F 97% 30.19 in 6.0 mi Calm Calm - N/A   Clear
6:53 AM 62.1 °F - 62.1 °F 100% 30.20 in 3.0 mi Calm Calm - N/A   Clear
7:15 AM 62.1 °F - 62.1 °F 100% 30.22 in 2.5 mi Calm Calm - N/A   Clear
7:27 AM 63.0 °F - 63.0 °F 100% 30.22 in 4.0 mi Calm Calm - N/A   Clear
7:53 AM 66.0 °F - 64.0 °F 93% 30.22 in 7.0 mi Calm Calm - N/A   Clear
8:53 AM 71.1 °F - 66.0 °F 84% 30.22 in 10.0 mi SSW 3.5 mph - N/A   Clear
9:53 AM 75.9 °F - 66.9 °F 74% 30.21 in 10.0 mi SSW 4.6 mph - N/A   Clear
10:53 AM 82.9 °F 85.8 °F 68.0 °F 60% 30.19 in 10.0 mi Variable 3.5 mph - N/A   Clear
11:53 AM 87.1 °F 90.6 °F 68.0 °F 53% 30.17 in 10.0 mi Calm Calm - N/A   Clear
12:53 PM 90.0 °F 93.6 °F 68.0 °F 48% 30.13 in 10.0 mi Variable 3.5 mph - N/A   Clear
1:53 PM 91.9 °F 97.4 °F 70.0 °F 48% 30.10 in 10.0 mi Variable 6.9 mph - N/A   Partly Cloudy
2:53 PM 91.9 °F 97.4 °F 70.0 °F 48% 30.08 in 10.0 mi SE 9.2 mph - N/A   Mostly Cloudy
3:01 PM 90.0 °F 94.5 °F 69.1 °F 50% 30.08 in 10.0 mi ESE 9.2 mph - N/A Thunderstorm Scattered Clouds
3:20 PM 79.0 °F - 72.0 °F 79% 30.09 in 1.0 mi SSE 10.4 mph 21.9 mph 0.12 in Rain , Thunderstorm Light Rain
3:25 PM 78.1 °F - 72.0 °F 81% 30.09 in 3.0 mi Variable 4.6 mph 21.9 mph 0.12 in Rain , Thunderstorm Light Rain
3:36 PM 79.0 °F - 72.0 °F 79% 30.09 in 10.0 mi SE 10.4 mph - 0.12 in Thunderstorm Thunderstorm
3:53 PM 79.0 °F - 71.1 °F 77% 30.07 in 10.0 mi South 6.9 mph - 0.12 in Thunderstorm Mostly Cloudy
4:01 PM 80.1 °F 83.8 °F 72.0 °F 76% 30.08 in 10.0 mi South 5.8 mph - N/A Thunderstorm Thunderstorm
4:19 PM 79.0 °F - 70.0 °F 74% 30.08 in 10.0 mi SSE 11.5 mph - N/A Thunderstorm Mostly Cloudy
4:38 PM 80.1 °F 83.2 °F 70.0 °F 71% 30.09 in 10.0 mi SSE 3.5 mph - N/A Thunderstorm Thunderstorm
4:53 PM 81.0 °F 84.4 °F 70.0 °F 69% 30.07 in 10.0 mi East 4.6 mph - N/A Thunderstorm Scattered Clouds
5:08 PM 81.0 °F 84.9 °F 71.1 °F 72% 30.08 in 10.0 mi SSE 6.9 mph - N/A   Clear
5:53 PM 82.0 °F 85.9 °F 70.0 °F 67% 30.05 in 10.0 mi SW 9.2 mph - N/A   Clear
6:53 PM 81.0 °F 83.8 °F 68.0 °F 65% 30.07 in 10.0 mi SSW 6.9 mph - N/A   Scattered Clouds
7:53 PM 78.1 °F - 68.0 °F 71% 30.07 in 10.0 mi South 4.6 mph - N/A   Partly Cloudy
8:53 PM 75.9 °F - 69.1 °F 79% 30.07 in 10.0 mi SW 4.6 mph - N/A   Clear
9:53 PM 75.9 °F - 69.1 °F 79% 30.08 in 10.0 mi SW 6.9 mph - N/A   Clear
10:53 PM 75.0 °F - 68.0 °F 79% 30.06 in 10.0 mi South 3.5 mph - N/A   Clear
11:53 PM 73.9 °F - 69.1 °F 85% 30.06 in 10.0 mi Calm Calm - N/A   Clear